Regional Weather Roundup
Issued by NWS

Home | Current Version | Previous Version | Text Only | Print | Product List | Glossary On
Versions: 1 2 3 4 5 6 7 8 9 10 11 12 13 14 15 16 17 18 19 20 21 22 23 24 25 26 27
000
ASUS46 KSEW 291810
RWRWA

WASHINGTON REGIONAL WEATHER ROUNDUP
NATIONAL WEATHER SERVICE SEATTLE WA
1100 AM PDT SAT APR 29 2017

NOTE:"FAIR" INDICATES FEW OR NO CLOUDS BELOW 12,000 FEET WITH NO
SIGNIFICANT WEATHER AND/OR OBSTRUCTIONS TO VISIBILITY.

WAZ507-509-555>559-291900-
SEATTLE, TACOMA, EVERETT, AND VICINITY

CITY           SKY/WX    TMP DP  RH WIND       PRES   REMARKS
EVERETT        CLOUDY    50  40  68 SE8       30.25F
6HR MIN TEMP:  42; 6HR MAX TEMP:  50;

BOEING FIELD   CLOUDY    50  43  77 SE7       30.26F
6HR MIN TEMP:  43; 6HR MAX TEMP:  50;

RENTON         CLOUDY    52  40  63 S6        30.26F
6HR MIN TEMP:  42; 6HR MAX TEMP:  52;

SEATAC AIRPORT CLOUDY    50  40  68 S8        30.25F
6HR MIN TEMP:  42; 6HR MAX TEMP:  50;

JBLM-MCCHORD   CLOUDY    51  43  74 SW3       30.26F
6HR MIN TEMP:  35; 6HR MAX TEMP:  51;

PUYALLUP         N/A     52  43  71 CALM      30.25F
BREMERTON      CLOUDY    47  43  86 SW7       30.26F
6HR MIN TEMP:  41; 6HR MAX TEMP:  47;

JBLM-FT LEWIS  MOSUNNY   52  40  63 W1        30.29F
6HR MIN TEMP:  36; 6HR MAX TEMP:  52;

TACOMA NARROWS CLOUDY    48  41  76 S5        30.26F
6HR MIN TEMP:  40; 6HR MAX TEMP:  48;

$$

WAZ001-503-506-510-514-515-291900-
NORTH INTERIOR

CITY           SKY/WX    TMP DP  RH WIND       PRES   REMARKS
BELLINGHAM     CLOUDY    49  43  80 VRB7      30.23F
6HR MIN TEMP:  41; 6HR MAX TEMP:  50;

FRIDAY HARBOR  CLOUDY    49  45  86 S8        30.24F
6HR MIN TEMP:  39; 6HR MAX TEMP:  50;

EASTSOUND      CLOUDY    50  41  71 S10       30.22F
PORT ANGELES   CLOUDY    49  42  77 E8        30.21F
6HR MIN TEMP:  39; 6HR MAX TEMP:  49;

EDIZ HOOK      MOCLDY    48  41  77 E8        30.21F
6HR MIN TEMP:  43; 6HR MAX TEMP:  49;

PORT TOWNSEND  CLOUDY    48  45  87 E10       30.23F
NAS WHIDBEY    CLOUDY    51  40  65 SE9       30.28F
6HR MIN TEMP:  41; 6HR MAX TEMP:  51;

ARLINGTON      CLOUDY    50  37  62 S10       30.27F
6HR MIN TEMP:  32; 6HR MAX TEMP:  52;

BURLINGTON     SUNNY     52  43  71 S7        30.24F
$$

WAZ020-022-039-040-504-511-512-291900-
SOUTHWEST INTERIOR

CITY           SKY/WX    TMP DP  RH WIND       PRES   REMARKS
SHELTON        CLOUDY    51  43  74 CALM      30.24F
6HR MIN TEMP:  34; 6HR MAX TEMP:  51;

OLYMPIA        CLOUDY    50  43  77 S5        30.26F
6HR MIN TEMP:  32; 6HR MAX TEMP:  50;

CHEHALIS       FAIR      52  43  71 VRB5      30.27F
KELSO          CLOUDY    52  42  69 SE10      30.29F
6HR MIN TEMP:  39; 6HR MAX TEMP:  53;

VANCOUVER      PTSUNNY   54  45  71 CALM      30.30F
6HR MIN TEMP:  39; 6HR MAX TEMP:  54;

SCAPPOOSE, OR  PTSUNNY   53  45  74 SE3       30.30F
6HR MIN TEMP:  36; 6HR MAX TEMP:  53;

PORTLAND, OR   PTSUNNY   52  42  69 NE7       30.31S
6HR MIN TEMP:  39; 6HR MAX TEMP:  52;

$$

WAZ021-516-517-291900-
WASHINGTON COAST

CITY           SKY/WX    TMP DP  RH WIND       PRES   REMARKS
FORKS          CLOUDY    49  41  74 S8        30.18F
6HR MIN TEMP:  37; 6HR MAX TEMP:  49;

HOQUIAM        CLOUDY    50  46  86 E9        30.24F
6HR MIN TEMP:  38; 6HR MAX TEMP:  50;

ASTORIA, OR    CLOUDY    51  42  71 CALM      30.26F
6HR MIN TEMP:  36; 6HR MAX TEMP:  51;

$$

WAZ019-023-024-040-567>569-291900-
CASCADE MOUNTAINS AND COLUMBIA GORGE

CITY           SKY/WX    TMP DP  RH WIND       PRES   REMARKS
STAMPEDE PASS  CLOUDY    40  33  76 CALM      30.19F
6HR MIN TEMP:  31; 6HR MAX TEMP:  40;

TROUTDALE, OR  PTSUNNY   55  42  61 CALM      30.30F
6HR MIN TEMP:  38; 6HR MAX TEMP:  55;

THE DALLES, OR MOSUNNY   56  42  59 CALM      30.26F
6HR MIN TEMP:  38; 6HR MAX TEMP:  56;

$$

WAZ026-027-041>044-520-521-291900-
EAST SLOPES

CITY           SKY/WX    TMP DP  RH WIND       PRES   REMARKS
OMAK           SUNNY     56  31  38 S10       30.19F
6HR MIN TEMP:  35; 6HR MAX TEMP:  56;

WENATCHEE      MOSUNNY   53  30  41 CALM      30.21F
6HR MIN TEMP:  38; 6HR MAX TEMP:  53;

ELLENSBURG     PTSUNNY   54  31  41 VRB3      30.22F
6HR MIN TEMP:  31; 6HR MAX TEMP:  55;

YAKIMA         PTSUNNY   58  32  37 VRB5      30.24F
6HR MIN TEMP:  33; 6HR MAX TEMP:  58;

SUNNYSIDE ARPT CLEAR     54  35  48 SE6       30.24F
6HR MIN TEMP:  31; 6HR MAX TEMP:  53;

$$

WAZ028-034-035-291900-
COLUMBIA BASIN

CITY           SKY/WX    TMP DP  RH WIND       PRES   REMARKS
EPHRATA        SUNNY     56  30  37 SW6       30.22F
6HR MIN TEMP:  35; 6HR MAX TEMP:  56;

MOSES LAKE     SUNNY     57  31  37 SW9       30.23F
6HR MIN TEMP:  34; 6HR MAX TEMP:  58;

PASCO          SUNNY     61  33  35 W7        30.25F
6HR MIN TEMP:  31; 6HR MAX TEMP:  61;

HERMISTON, OR  SUNNY     59  39  47 NW7       30.25F
6HR MIN TEMP:  32; 6HR MAX TEMP:  59;

$$

WAZ036>038-291900-
NORTHEAST WASHINGTON

CITY           SKY/WX    TMP DP  RH WIND       PRES   REMARKS
SPOKANE GEIGER MOSUNNY   52  35  52 SW10      30.22F
6HR MIN TEMP:  38; 6HR MAX TEMP:  52;

SPOKANE FELTS  MOSUNNY   56  38  50 S10       30.23F
6HR MIN TEMP:  46; 6HR MAX TEMP:  56;

FAIRCHILD AFB  SUNNY     52  38  59 SE7       30.22S
6HR MIN TEMP:  37; 6HR MAX TEMP:  52; 6HR PCP: TRACE;

COEURDALENE,ID SUNNY     53  39  59 S9        30.23F
6HR MIN TEMP:  41; 6HR MAX TEMP:  53; 6HR PCP: TRACE;

DEER PARK      SUNNY     53  36  52 VRB5      30.23F
6HR MIN TEMP:  40; 6HR MAX TEMP:  53;

$$

WAZ029>033-291900-
SOUTHEAST WASHINGTON

CITY           SKY/WX    TMP DP  RH WIND       PRES   REMARKS
PULLMAN        SUNNY     53  38  56 SE6       30.26S
6HR MIN TEMP:  37; 6HR MAX TEMP:  54;

LEWISTON, ID   SUNNY     56  41  57 E5        30.24F
6HR MIN TEMP:  39; 6HR MAX TEMP:  57;

WALLA WALLA    SUNNY     57  38  48 NW5       30.25S
6HR MIN TEMP:  41; 6HR MAX TEMP:  57;

PENDLETON, OR  SUNNY     56  38  50 W6        30.24S
6HR MIN TEMP:  35; 6HR MAX TEMP:  56;

$$




USA.gov is the U.S. government's official web portal to all federal, state and local government web resources and services.